Location: New York
(40.7127°N, 74.0060°W)
Time: 14:37:52
(UTC-04:00)

RS-44 - Visible Passes

Search period start: 22 April 2024 00:00
Search period end: 02 May 2024 00:00
Orbit: 1174 x 1510 km, 82.5° (Epoch: 22 April)

Date Brightness Start Highest point End Pass type
(mag) Time Alt. Az. Time Alt. Az. Time Alt. Az.
22 Apr ? 19:56:07 10° SSE 20:04:40 56° E 20:12:52 10° NNE visible
22 Apr ? 21:50:44 10° SW 21:58:25 33° WNW 22:05:52 10° N visible
23 Apr ? 20:19:29 10° S 20:28:21 84° E 20:36:49 10° N visible
23 Apr ? 22:16:27 10° WSW 22:22:43 21° WNW 22:28:48 10° NNW visible
24 Apr ? 20:43:25 10° SSW 20:52:11 67° W 21:00:33 10° N visible
24 Apr ? 22:43:37 10° W 22:47:14 13° WNW 22:50:48 10° NW visible
25 Apr ? 21:07:53 10° SW 21:16:09 44° WNW 21:24:04 10° N visible
26 Apr ? 05:11:35 10° NE 05:13:37 11° ENE 05:15:37 10° ENE visible
26 Apr ? 21:33:01 10° SW 21:40:17 29° WNW 21:47:18 10° NNW visible
27 Apr ? 20:01:18 10° S 20:10:07 88° W 20:18:27 10° N visible
27 Apr ? 21:59:02 10° WSW 22:04:37 18° WNW 22:10:04 10° NNW visible
28 Apr ? 20:25:22 10° SSW 20:33:58 60° W 20:42:08 10° N visible
28 Apr ? 22:27:14 10° WNW 22:29:12 11° WNW 22:31:08 10° NW visible
29 Apr ? 20:50:01 10° SW 20:57:59 39° WNW 21:05:34 10° N visible
30 Apr ? 04:52:24 10° NE 04:55:27 13° ENE 04:58:26 10° E visible
30 Apr ? 21:15:21 10° WSW 21:22:09 25° WNW 21:28:42 10° NNW visible
01 May ? 05:14:28 10° NNE 05:19:53 21° ENE 05:25:08 10° ESE visible
01 May ? 21:41:44 10° W 21:46:31 16° WNW 21:51:12 10° NNW visible
